Weather in Bobrovnikovo

Russia / Vologda Oblast     60°49′17″N   46°25′26″E
temp.,
°C
wind,
m/s
gust,
m/s
humid.,
%
clouds,
%
prec.,
mm/h
press.,
hPa
HPBL,
m
20 june, sun
sun2000:00+14n24544 0.0 101985
03:00+11e11715 0.0 102110
06:00+16sse125697 0.0 1022229
09:00+18se125767 0.0 1022314
12:00+19se235484 0.1 1021426
15:00+25ese344491 0.1 10191128
18:00+23se4656100 0.0 1018543
21:00+19se4116349 0.0 1017319
21 june, mon
mon2100:00+17sse267989 0.0 1017150
03:00+16wsw22907 0.0 101738
06:00+20wsw277582 0.0 1017204
09:00+27w3552100 0.0 1017713
12:00+30wnw4735100 0.0 10162697
15:00+32wnw472913 0.0 10162977
18:00+28nw124898 0.0 101637
21:00+23w115924 0.0 101711
22 june, tue
tue2200:00+20w226584 0.0 101811
03:00+18w226680 0.0 101817
06:00+23w23580 0.0 1019138
09:00+29w24400 0.0 1018760
12:00+33wnw47276 0.0 10183093
15:00+31wsw463881 0.0 10171414
18:00+28sw36513 0.0 1017302
21:00+22w247630 0.0 101982
23 june, wed
wed2300:00+19wnw228660 0.0 101939
03:00+18wnw119325 0.0 101822
06:00+22wnw237613 0.0 1019254
09:00+27wnw125444 0.0 1019775
12:00+31w224038 0.0 10181683
15:00+32w2335100 0.0 10172475
18:00+30w234962 0.0 1016138
21:00+24sw11645 0.0 101611
24 june, thu
thu2400:00+20sw2385100 0.0 101762
03:00+18se2294100 0.6 101628
06:00+22wsw148171 0.2 1016151
09:00+29sw3453100 0.2 1016602
12:00+33w4635100 0.0 10152738
15:00+33wnw5734100 0.0 10152747
18:00+31wnw473989 0.0 10141068
21:00+24nw246017 0.0 101467